Location: Borgo
(42.3939°N, 9.2791°E)
Time: 17:50:07
(UTC+00:00)

Cosmos 1833 Rocket - Pass Details

Date: 24 January 2021
Orbit: 833 x 839 km, 71.0° (Epoch: 02 March)

Event Time Altitude Azimuth Distance (km) Brightness Sun altitude
Rises 18:25:57 0° 338° (NNW) 3,390 6.0 -21.9°
Reaches altitude 10° 18:28:26 10° 341° (NNW) 2,452 5.2 -22.4°
Maximum altitude 18:34:01 64° 63° (ENE) 925 2.6 -23.4°
Enters shadow 18:34:58 55° 108° (ESE) 1,002 2.7 -23.6°
